{"data":{"norad_id":59498,"intl_designator":"2024-071Q","name":"STARLINK-31731","alt_names":[],"object_type":"PAYLOAD","status":"ACTIVE","operator":null,"country":"US","launch_date":"2024-04-13","launch_site_code":"AFETR","launch_vehicle":null,"mission":null,"orbit_class":"UNKNOWN","rcs_meters":null,"size_class":null,"mass_kg":null,"dimensions":null,"purposes":["comms"],"wikipedia_slug":null,"has_3d_model":false,"image_url":null,"decayed_at":null,"tle_current":{"epoch":"2026-09-21T14:45:31.430304Z","epoch_age_seconds":68866,"freshness":"FRESH","line1":"1 59498U 24071Q   26264.61494711  .00002412  00000+0  97168-4 0  9995","line2":"2 59498  43.0028 312.9349 0001296 277.3561  82.7144 15.27573554138174","mean_motion":15.27573554,"eccentricity":0.0001296,"inclination_deg":43.0028,"raan_deg":312.9349,"arg_perigee_deg":277.3561,"mean_anomaly_deg":82.7144,"bstar":9.7168e-5,"rev_number":13817,"period_min":94.267146497091,"perigee_km":482.17918553091,"apogee_km":483.95760997001,"semimajor_km":6861.2053977505,"source":"CELESTRAK","updated_at":"2026-09-22T09:00:48.959539Z"}}}